Time,TemperatureF,DewpointF,PressureIn,WindDirection,WindDirectionDegrees,WindSpeedMPH,WindSpeedGustMPH,Humidity,HourlyPrecipIn,Conditions,Clouds,dailyrainin,SoftwareType,DateUTC
2013-02-08 00:02:00,36.7,36.4,29.81,West,270,3.2,-999.0,99,-99.99,,,0.00,Acu-Link.com,2013-02-08 08:02:00,
2013-02-08 00:17:00,36.9,36.4,29.81,WSW,247,4.2,-999.0,98,-99.99,,,0.00,Acu-Link.com,2013-02-08 08:17:00,
2013-02-08 00:32:00,36.7,36.2,29.81,WSW,247,5.3,-999.0,98,-99.99,,,0.00,Acu-Link.com,2013-02-08 08:32:00,
2013-02-08 00:47:00,36.7,36.2,29.81,West,270,5.3,-999.0,98,-99.99,,,0.00,Acu-Link.com,2013-02-08 08:47:00,
2013-02-08 01:02:00,36.7,36.2,29.80,SW,225,2.2,-999.0,98,-99.99,,,0.00,Acu-Link.com,2013-02-08 09:02:00,
2013-02-08 01:18:00,36.5,35.7,29.80,WNW,292,3.2,-999.0,97,-99.99,,,0.00,Acu-Link.com,2013-02-08 09:18:00,
2013-02-08 01:33:00,36.5,35.7,29.80,NW,315,1.7,-999.0,97,-99.99,,,0.00,Acu-Link.com,2013-02-08 09:33:00,
2013-02-08 01:48:00,36.7,36.2,29.80,West,270,3.7,-999.0,98,-99.99,,,0.00,Acu-Link.com,2013-02-08 09:48:00,
2013-02-08 02:03:00,36.1,35.6,29.80,WSW,247,2.7,-999.0,98,-99.99,,,0.00,Acu-Link.com,2013-02-08 10:03:00,
2013-02-08 02:18:00,36.0,35.7,29.80,West,270,0.0,-999.0,99,-99.99,,,0.00,Acu-Link.com,2013-02-08 10:18:00,
2013-02-08 02:34:00,35.4,35.1,29.79,NE,45,2.2,-999.0,99,-99.99,,,0.00,Acu-Link.com,2013-02-08 10:34:00,
2013-02-08 02:49:00,35.4,35.1,29.78,SE,135,0.0,-999.0,99,-99.99,,,0.00,Acu-Link.com,2013-02-08 10:49:00,
2013-02-08 03:04:00,35.1,34.8,29.78,South,180,0.0,-999.0,99,-99.99,,,0.00,Acu-Link.com,2013-02-08 11:04:00,
2013-02-08 03:20:00,35.1,34.8,29.78,SW,225,0.0,-999.0,99,-99.99,,,0.00,Acu-Link.com,2013-02-08 11:20:00,
2013-02-08 03:35:00,34.7,34.4,29.78,NNW,337,0.0,-999.0,99,-99.99,,,0.00,Acu-Link.com,2013-02-08 11:35:00,
2013-02-08 03:50:00,34.9,34.6,29.78,WSW,247,4.2,-999.0,99,-99.99,,,0.00,Acu-Link.com,2013-02-08 11:50:00,
2013-02-08 04:06:00,35.1,34.8,29.78,West,270,1.7,-999.0,99,-99.99,,,0.00,Acu-Link.com,2013-02-08 12:06:00,
2013-02-08 04:21:00,35.1,34.8,29.79,East,90,0.0,-999.0,99,-99.99,,,0.00,Acu-Link.com,2013-02-08 12:21:00,
2013-02-08 04:36:00,34.9,34.4,29.79,ENE,67,0.0,-999.0,98,-99.99,,,0.00,Acu-Link.com,2013-02-08 12:36:00,
2013-02-08 04:51:00,35.4,34.9,29.79,ENE,67,2.2,-999.0,98,-99.99,,,0.00,Acu-Link.com,2013-02-08 12:51:00,
2013-02-08 05:06:00,35.1,34.6,29.78,South,180,2.2,-999.0,98,-99.99,,,0.00,Acu-Link.com,2013-02-08 13:06:00,
2013-02-08 05:22:00,35.1,34.6,29.79,West,270,2.2,-999.0,98,-99.99,,,0.00,Acu-Link.com,2013-02-08 13:22:00,
2013-02-08 05:37:00,34.9,34.4,29.79,SW,225,1.1,-999.0,98,-99.99,,,0.00,Acu-Link.com,2013-02-08 13:37:00,
2013-02-08 05:52:00,35.1,34.1,29.80,SW,225,0.0,-999.0,96,-99.99,,,0.00,Acu-Link.com,2013-02-08 13:52:00,
2013-02-08 06:07:00,35.1,34.3,29.79,West,270,0.0,-999.0,97,-99.99,,,0.00,Acu-Link.com,2013-02-08 14:07:00,
2013-02-08 06:22:00,35.8,34.5,29.79,West,270,5.3,-999.0,95,-99.99,,,0.00,Acu-Link.com,2013-02-08 14:22:00,
2013-02-08 06:38:00,35.1,34.1,29.80,West,270,6.3,-999.0,96,-99.99,,,0.00,Acu-Link.com,2013-02-08 14:38:00,
2013-02-08 06:53:00,36.0,33.9,29.80,WSW,247,9.9,-999.0,92,-99.99,,,0.00,Acu-Link.com,2013-02-08 14:53:00,
2013-02-08 07:08:00,35.4,33.6,29.81,SW,225,1.7,-999.0,93,-99.99,,,0.00,Acu-Link.com,2013-02-08 15:08:00,
2013-02-08 07:24:00,35.8,33.4,29.81,WSW,247,5.8,-999.0,91,-99.99,,,0.00,Acu-Link.com,2013-02-08 15:24:00,
2013-02-08 07:39:00,36.3,33.4,29.81,West,270,5.8,-999.0,89,-99.99,,,0.00,Acu-Link.com,2013-02-08 15:39:00,
2013-02-08 07:54:00,37.8,33.7,29.82,West,270,4.2,-999.0,85,-99.99,,,0.00,Acu-Link.com,2013-02-08 15:54:00,
2013-02-08 08:10:00,39.4,35.3,29.82,WSW,247,3.2,-999.0,85,-99.99,,,0.00,Acu-Link.com,2013-02-08 16:10:00,
2013-02-08 08:25:00,40.8,34.8,29.83,SSW,202,1.7,-999.0,79,-99.99,,,0.00,Acu-Link.com,2013-02-08 16:25:00,
2013-02-08 08:40:00,40.3,35.3,29.83,South,180,2.7,-999.0,82,-99.99,,,0.00,Acu-Link.com,2013-02-08 16:40:00,
2013-02-08 08:55:00,43.2,35.5,29.83,SW,225,4.7,-999.0,74,-99.99,,,0.00,Acu-Link.com,2013-02-08 16:55:00,
2013-02-08 09:10:00,44.4,35.2,29.84,North,0,5.3,-999.0,70,-99.99,,,0.00,Acu-Link.com,2013-02-08 17:10:00,
2013-02-08 09:26:00,44.2,35.0,29.85,SW,225,6.3,-999.0,70,-99.99,,,0.00,Acu-Link.com,2013-02-08 17:26:00,
2013-02-08 09:41:00,48.7,36.3,29.84,SSW,202,2.7,-999.0,62,-99.99,,,0.00,Acu-Link.com,2013-02-08 17:41:00,
2013-02-08 09:56:00,52.2,36.1,29.85,SW,225,0.0,-999.0,54,-99.99,,,0.00,Acu-Link.com,2013-02-08 17:56:00,
2013-02-08 10:11:00,51.6,35.5,29.85,NNW,337,2.7,-999.0,54,-99.99,,,0.00,Acu-Link.com,2013-02-08 18:11:00,
2013-02-08 10:26:00,50.9,35.8,29.86,ESE,112,2.2,-999.0,56,-99.99,,,0.00,Acu-Link.com,2013-02-08 18:26:00,
2013-02-08 10:41:00,52.2,34.1,29.86,West,270,3.2,-999.0,50,-99.99,,,0.00,Acu-Link.com,2013-02-08 18:41:00,
2013-02-08 10:57:00,55.6,34.0,29.85,West,270,3.2,-999.0,44,-99.99,,,0.00,Acu-Link.com,2013-02-08 18:57:00,
2013-02-08 11:12:00,53.1,33.4,29.84,West,270,1.1,-999.0,47,-99.99,,,0.00,Acu-Link.com,2013-02-08 19:12:00,
2013-02-08 11:27:00,55.2,33.7,29.84,West,270,4.2,-999.0,44,-99.99,,,0.00,Acu-Link.com,2013-02-08 19:27:00,
2013-02-08 11:42:00,58.3,34.7,29.84,NNE,22,2.7,-999.0,41,-99.99,,,0.00,Acu-Link.com,2013-02-08 19:42:00,
2013-02-08 11:57:00,59.2,33.6,29.83,WSW,247,6.3,-999.0,38,-99.99,,,0.00,Acu-Link.com,2013-02-08 19:57:00,
2013-02-08 12:13:00,60.6,35.5,29.83,West,270,2.2,-999.0,39,-99.99,,,0.00,Acu-Link.com,2013-02-08 20:13:00,
2013-02-08 12:28:00,59.0,35.9,29.83,WSW,247,6.3,-999.0,42,-99.99,,,0.00,Acu-Link.com,2013-02-08 20:28:00,
2013-02-08 12:43:00,53.6,33.9,29.82,SW,225,8.9,-999.0,47,-99.99,,,0.00,Acu-Link.com,2013-02-08 20:43:00,
2013-02-08 12:58:00,57.9,35.0,29.81,WNW,292,5.3,-999.0,42,-99.99,,,0.00,Acu-Link.com,2013-02-08 20:58:00,
2013-02-08 13:13:00,57.2,35.5,29.81,SSW,202,5.3,-999.0,44,-99.99,,,0.00,Acu-Link.com,2013-02-08 21:13:00,
2013-02-08 13:29:00,58.3,35.9,29.81,West,270,7.8,-999.0,43,-99.99,,,0.00,Acu-Link.com,2013-02-08 21:29:00,
2013-02-08 13:44:00,56.3,34.7,29.80,SW,225,10.9,-999.0,44,-99.99,,,0.00,Acu-Link.com,2013-02-08 21:44:00,
2013-02-08 13:59:00,55.0,34.1,29.80,WSW,247,6.8,-999.0,45,-99.99,,,0.00,Acu-Link.com,2013-02-08 21:59:00,
2013-02-08 14:15:00,55.6,33.5,29.80,SSE,157,7.8,-999.0,43,-99.99,,,0.00,Acu-Link.com,2013-02-08 22:15:00,
2013-02-08 14:30:00,57.2,33.7,29.79,SW,225,11.4,-999.0,41,-99.99,,,0.00,Acu-Link.com,2013-02-08 22:30:00,
2013-02-08 14:45:00,58.6,31.7,29.79,SW,225,2.2,-999.0,36,-99.99,,,0.00,Acu-Link.com,2013-02-08 22:45:00,
2013-02-08 15:00:00,60.4,33.3,29.79,WNW,292,1.7,-999.0,36,-99.99,,,0.00,Acu-Link.com,2013-02-08 23:00:00,
2013-02-08 15:15:00,62.4,25.1,29.78,South,180,1.7,-999.0,24,-99.99,,,0.00,Acu-Link.com,2013-02-08 23:15:00,
2013-02-08 15:31:00,62.1,23.9,29.78,South,180,2.7,-999.0,23,-99.99,,,0.00,Acu-Link.com,2013-02-08 23:31:00,
2013-02-08 15:46:00,62.2,21.8,29.78,West,270,2.7,-999.0,21,-99.99,,,0.00,Acu-Link.com,2013-02-08 23:46:00,
2013-02-08 16:01:00,60.4,21.4,29.78,SSW,202,1.7,-999.0,22,-99.99,,,0.00,Acu-Link.com,2013-02-09 00:01:00,
2013-02-08 16:16:00,61.0,33.2,29.78,West,270,3.2,-999.0,35,-99.99,,,0.00,Acu-Link.com,2013-02-09 00:16:00,
2013-02-08 16:31:00,61.0,35.2,29.78,WNW,292,2.2,-999.0,38,-99.99,,,0.00,Acu-Link.com,2013-02-09 00:31:00,
2013-02-08 16:47:00,56.5,34.9,29.77,West,270,6.8,-999.0,44,-99.99,,,0.00,Acu-Link.com,2013-02-09 00:47:00,
2013-02-08 17:02:00,55.8,35.3,29.77,North,0,1.7,-999.0,46,-99.99,,,0.00,Acu-Link.com,2013-02-09 01:02:00,
2013-02-08 17:17:00,54.3,35.0,29.77,West,270,9.9,-999.0,48,-99.99,,,0.00,Acu-Link.com,2013-02-09 01:17:00,
2013-02-08 17:32:00,51.6,35.0,29.78,WNW,292,4.7,-999.0,53,-99.99,,,0.00,Acu-Link.com,2013-02-09 01:32:00,
2013-02-08 17:48:00,49.3,34.7,29.78,WNW,292,2.2,-999.0,57,-99.99,,,0.00,Acu-Link.com,2013-02-09 01:48:00,
2013-02-08 18:03:00,48.0,34.8,29.79,WNW,292,2.7,-999.0,60,-99.99,,,0.00,Acu-Link.com,2013-02-09 02:03:00,
2013-02-08 18:18:00,47.1,34.8,29.79,WNW,292,3.7,-999.0,62,-99.99,,,0.00,Acu-Link.com,2013-02-09 02:18:00,
2013-02-08 18:33:00,46.0,34.5,29.80,SSW,202,1.7,-999.0,64,-99.99,,,0.00,Acu-Link.com,2013-02-09 02:33:00,
2013-02-08 18:48:00,45.3,34.6,29.81,NNW,337,3.7,-999.0,66,-99.99,,,0.00,Acu-Link.com,2013-02-09 02:48:00,
2013-02-08 19:04:00,45.0,34.3,29.81,SSW,202,1.7,-999.0,66,-99.99,,,0.00,Acu-Link.com,2013-02-09 03:04:00,
2013-02-08 19:19:00,44.4,32.6,29.82,SSW,202,3.2,-999.0,63,-99.99,,,0.00,Acu-Link.com,2013-02-09 03:19:00,
2013-02-08 19:34:00,45.1,29.5,29.82,SSE,157,3.7,-999.0,54,-99.99,,,0.00,Acu-Link.com,2013-02-09 03:34:00,
2013-02-08 19:49:00,45.3,29.6,29.82,SSW,202,0.0,-999.0,54,-99.99,,,0.00,Acu-Link.com,2013-02-09 03:49:00,
2013-02-08 20:04:00,45.5,30.3,29.82,SW,225,4.7,-999.0,55,-99.99,,,0.00,Acu-Link.com,2013-02-09 04:04:00,
2013-02-08 20:20:00,45.1,30.4,29.83,West,270,1.7,-999.0,56,-99.99,,,0.00,Acu-Link.com,2013-02-09 04:20:00,
2013-02-08 20:35:00,44.8,30.9,29.82,ENE,67,1.7,-999.0,58,-99.99,,,0.00,Acu-Link.com,2013-02-09 04:35:00,
2013-02-08 20:50:00,44.6,27.6,29.82,ENE,67,1.1,-999.0,51,-99.99,,,0.00,Acu-Link.com,2013-02-09 04:50:00,
2013-02-08 21:05:00,44.4,26.0,29.83,SSE,157,1.1,-999.0,48,-99.99,,,0.00,Acu-Link.com,2013-02-09 05:05:00,
2013-02-08 21:20:00,44.1,24.7,29.84,WNW,292,2.2,-999.0,46,-99.99,,,0.00,Acu-Link.com,2013-02-09 05:20:00,
2013-02-08 21:36:00,43.7,22.7,29.83,West,270,2.2,-999.0,43,-99.99,,,0.00,Acu-Link.com,2013-02-09 05:36:00,
2013-02-08 21:51:00,43.3,23.4,29.84,WNW,292,1.7,-999.0,45,-99.99,,,0.00,Acu-Link.com,2013-02-09 05:51:00,
2013-02-08 22:06:00,44.2,23.1,29.83,SSW,202,4.7,-999.0,43,-99.99,,,0.00,Acu-Link.com,2013-02-09 06:06:00,
2013-02-08 22:21:00,44.2,23.1,29.83,South,180,0.0,-999.0,43,-99.99,,,0.00,Acu-Link.com,2013-02-09 06:21:00,
2013-02-08 22:37:00,43.7,23.2,29.83,SE,135,1.1,-999.0,44,-99.99,,,0.00,Acu-Link.com,2013-02-09 06:37:00,
2013-02-08 22:52:00,43.7,22.7,29.84,South,180,4.7,-999.0,43,-99.99,,,0.00,Acu-Link.com,2013-02-09 06:52:00,
2013-02-08 23:07:00,42.8,24.5,29.84,West,270,1.7,-999.0,48,-99.99,,,0.00,Acu-Link.com,2013-02-09 07:07:00,
2013-02-08 23:22:00,42.6,23.8,29.84,NW,315,5.3,-999.0,47,-99.99,,,0.00,Acu-Link.com,2013-02-09 07:22:00,
2013-02-08 23:38:00,42.3,23.5,29.84,NE,45,0.0,-999.0,47,-99.99,,,0.00,Acu-Link.com,2013-02-09 07:38:00,
2013-02-08 23:53:00,42.6,23.3,29.85,WSW,247,0.0,-999.0,46,-99.99,,,0.00,Acu-Link.com,2013-02-09 07:53:00,